Le nostre stazioni meteo in Italia

Pubblicità
Il mio iltempo24.it
Treviso/S. Angelo, Italia (16099): Temperatura & dewpoint: 01.12.2019 10:00:00 - 07.12.2019 10:00:00 (CET)Treviso/S. Angelo, Italia (16099): velocità del vento: 01.12.2019 10:00:00 - 07.12.2019 10:00:00 (CET)Treviso/S. Angelo, Italia (16099): direzione del vento: 01.12.2019 10:00:00 - 07.12.2019 10:00:00 (CET)Treviso/S. Angelo, Italia (16099): reduced air pressure: 01.12.2019 10:00:00 - 07.12.2019 10:00:00 (CET)Treviso/S. Angelo, Italia (16099): visibility: 01.12.2019 10:00:00 - 07.12.2019 10:00:00 (CET)Treviso/S. Angelo, Italia (16099): precipitazioni: 01.12.2019 10:00:00 - 07.12.2019 10:00:00 (CET)
Data & Tempo tt [°C] td [°C] ff [km/h] ff [kn] dd ppp [hPa] vv [km] rr [mm]
07.12.2019 10:00:00 5,1 1,7 2 1 N 1019,9 20 0,0
07.12.2019 09:00:00 - - - - - - - -
07.12.2019 08:00:00 - - - - - - - -
07.12.2019 07:00:00 2,4 1,7 4 2 NNO 1019,3 - -
07.12.2019 06:00:00 - - - - - - - -
07.12.2019 05:00:00 - - - - - - - -
07.12.2019 04:00:00 2,9 2,3 0 0 N 1019,3 - 0,0
07.12.2019 03:00:00 - - - - - - - -
07.12.2019 02:00:00 - - - - - - - -
07.12.2019 01:00:00 4,5 3,4 5 3 OSO 1020,4 - -
07.12.2019 00:00:00 - - - - - - - -
06.12.2019 23:00:00 - - - - - - - -
06.12.2019 22:00:00 5,1 3,7 5 3 OSO 1021,7 20 0,0
06.12.2019 21:00:00 - - - - - - - -
06.12.2019 20:00:00 - - - - - - - -
06.12.2019 19:00:00 7,2 3,4 5 3 O 1022,4 20 -
06.12.2019 18:00:00 - - - - - - - -
06.12.2019 17:00:00 - - - - - - - -
06.12.2019 16:00:00 8,7 3,8 4 2 SO 1022,8 20 0,0
06.12.2019 15:00:00 - - - - - - - -
06.12.2019 14:00:00 - - - - - - - -
06.12.2019 13:00:00 9,5 2,4 0 0 N 1024,3 - -
06.12.2019 12:00:00 - - - - - - - -
06.12.2019 11:00:00 - - - - - - - -
06.12.2019 10:00:00 6,6 2,6 4 2 N 1026,0 - 0,0
06.12.2019 09:00:00 - - - - - - - -
06.12.2019 08:00:00 - - - - - - - -
06.12.2019 07:00:00 4,3 1,6 2 1 - 1025,8 - -
06.12.2019 06:00:00 - - - - - - - -
06.12.2019 05:00:00 - - - - - - - -
06.12.2019 04:00:00 3,1 0,9 4 2 N 1026,1 - 0,0
06.12.2019 03:00:00 - - - - - - - -
06.12.2019 02:00:00 - - - - - - - -
06.12.2019 01:00:00 2,5 0,4 0 0 N 1026,4 - -
06.12.2019 00:00:00 - - - - - - - -
05.12.2019 23:00:00 - - - - - - - -
05.12.2019 22:00:00 1,2 -0,7 4 2 N 1026,7 - 0,0
05.12.2019 21:00:00 - - - - - - - -
05.12.2019 20:00:00 - - - - - - - -
05.12.2019 19:00:00 4,0 -0,6 2 1 ONO 1027,0 25 -
05.12.2019 18:00:00 - - - - - - - -
05.12.2019 17:00:00 - - - - - - - -
05.12.2019 16:00:00 8,9 -2,7 2 1 - 1026,3 25 0,0
05.12.2019 15:00:00 - - - - - - - -
05.12.2019 14:00:00 - - - - - - - -
05.12.2019 13:00:00 8,2 -2,3 5 3 N 1026,9 - -
05.12.2019 12:00:00 - - - - - - - -
05.12.2019 11:00:00 - - - - - - - -
05.12.2019 10:00:00 4,6 -1,4 5 3 N 1027,3 - 0,0
05.12.2019 09:00:00 - - - - - - - -
05.12.2019 08:00:00 - - - - - - - -
05.12.2019 07:00:00 1,1 -2,9 8 4 N 1025,7 - -
05.12.2019 06:00:00 - - - - - - - -
05.12.2019 05:00:00 - - - - - - - -
05.12.2019 04:00:00 1,3 -1,6 9 5 N 1024,8 - 0,0
05.12.2019 03:00:00 - - - - - - - -
05.12.2019 02:00:00 - - - - - - - -
05.12.2019 01:00:00 0,5 -0,5 2 1 N 1025,0 - -
05.12.2019 00:00:00 - - - - - - - -
04.12.2019 23:00:00 - - - - - - - -
04.12.2019 22:00:00 2,8 -0,3 2 1 N 1024,5 - 0,0
04.12.2019 21:00:00 - - - - - - - -
04.12.2019 20:00:00 - - - - - - - -
04.12.2019 19:00:00 5,1 -0,1 8 4 ONO 1023,9 - -
04.12.2019 18:00:00 - - - - - - - -
04.12.2019 17:00:00 - - - - - - - -
04.12.2019 16:00:00 8,5 -1,5 2 1 N 1024,5 - 0,0
04.12.2019 15:00:00 - - - - - - - -
04.12.2019 14:00:00 - - - - - - - -
04.12.2019 13:00:00 7,8 -1,4 5 3 NNE 1025,8 30 -
04.12.2019 12:00:00 - - - - - - - -
04.12.2019 11:00:00 - - - - - - - -
04.12.2019 10:00:00 5,0 -1,4 13 7 NE 1027,8 30 0,0
04.12.2019 09:00:00 - - - - - - - -
04.12.2019 08:00:00 - - - - - - - -
04.12.2019 07:00:00 1,2 -1,8 5 3 NNE 1027,6 - -
04.12.2019 06:00:00 - - - - - - - -
04.12.2019 05:00:00 - - - - - - - -
04.12.2019 04:00:00 1,6 -1,9 2 1 N 1026,8 - 0,0
04.12.2019 03:00:00 - - - - - - - -
04.12.2019 02:00:00 - - - - - - - -
04.12.2019 01:00:00 2,6 -1,8 4 2 NNE 1028,0 - -
04.12.2019 00:00:00 - - - - - - - -
03.12.2019 23:00:00 - - - - - - - -
03.12.2019 22:00:00 4,2 -0,8 5 3 NNE 1028,3 25 0,0
03.12.2019 21:00:00 - - - - - - - -
03.12.2019 20:00:00 - - - - - - - -
03.12.2019 19:00:00 5,9 -1,3 5 3 NE 1026,9 25 -
03.12.2019 18:00:00 - - - - - - - -
03.12.2019 17:00:00 - - - - - - - -
03.12.2019 16:00:00 7,6 -0,2 11 6 ENE 1025,4 25 0,0
03.12.2019 15:00:00 - - - - - - - -
03.12.2019 14:00:00 - - - - - - - -
03.12.2019 13:00:00 8,8 0,0 11 6 ENE 1025,8 65 -
03.12.2019 12:00:00 - - - - - - - -
03.12.2019 11:00:00 - - - - - - - -
03.12.2019 10:00:00 7,1 -0,5 11 6 NE 1026,0 26 0,0
03.12.2019 09:00:00 - - - - - - - -
03.12.2019 08:00:00 - - - - - - - -
03.12.2019 07:00:00 5,0 1,2 4 2 NNE 1023,7 - -
03.12.2019 06:00:00 - - - - - - - -
03.12.2019 05:00:00 - - - - - - - -
03.12.2019 04:00:00 7,2 2,2 9 5 NNE 1023,0 - 0,0
03.12.2019 03:00:00 - - - - - - - -
03.12.2019 02:00:00 - - - - - - - -
03.12.2019 01:00:00 8,3 3,7 9 5 N 1022,2 - -
03.12.2019 00:00:00 - - - - - - - -
02.12.2019 23:00:00 - - - - - - - -
02.12.2019 22:00:00 9,3 4,5 11 6 NNE 1021,0 29 0,0
02.12.2019 21:00:00 - - - - - - - -
02.12.2019 20:00:00 - - - - - - - -
02.12.2019 19:00:00 10,4 8,9 13 7 NE 1018,3 26 -
02.12.2019 18:00:00 - - - - - - - -
02.12.2019 17:00:00 - - - - - - - -
02.12.2019 16:00:00 10,9 9,6 4 2 N 1015,5 26 0,0
02.12.2019 15:00:00 - - - - - - - -
02.12.2019 14:00:00 - - - - - - - -
02.12.2019 13:00:00 10,7 9,4 5 3 OSO 1014,8 30 -
02.12.2019 12:00:00 - - - - - - - -
02.12.2019 11:00:00 - - - - - - - -
02.12.2019 10:00:00 9,0 8,7 5 3 OSO 1015,0 30 0,0
02.12.2019 09:00:00 - - - - - - - -
02.12.2019 08:00:00 - - - - - - - -
02.12.2019 07:00:00 8,3 8,3 4 2 O 1014,2 - -
02.12.2019 06:00:00 - - - - - - - -
02.12.2019 05:00:00 - - - - - - - -
02.12.2019 04:00:00 8,8 8,8 5 3 NNO 1014,7 - 0,0
02.12.2019 03:00:00 - - - - - - - -
02.12.2019 02:00:00 - - - - - - - -
02.12.2019 01:00:00 8,6 8,6 4 2 N 1016,1 - -
02.12.2019 00:00:00 - - - - - - - -
01.12.2019 23:00:00 - - - - - - - -
01.12.2019 22:00:00 7,9 7,6 13 7 NNE 1017,7 6 0,0
01.12.2019 21:00:00 - - - - - - - -
01.12.2019 20:00:00 - - - - - - - -
01.12.2019 19:00:00 8,1 5,1 11 6 NE 1018,9 - -
01.12.2019 18:00:00 - - - - - - - -
01.12.2019 17:00:00 - - - - - - - -
01.12.2019 16:00:00 8,9 4,6 9 5 NNE 1019,7 - 0,0
01.12.2019 15:00:00 - - - - - - - -
01.12.2019 14:00:00 - - - - - - - -
01.12.2019 13:00:00 9,4 1,9 11 6 NNE 1020,8 30 -
01.12.2019 12:00:00 - - - - - - - -
01.12.2019 11:00:00 - - - - - - - -
01.12.2019 10:00:00 8,3 1,8 9 5 NE 1022,3 40 0,0

tt = Temperatura
td = dewpoint
ff = velocità del vento
dd = direzione del vento
ppp = reduced air pressure
vv = visibility
rr = precipitazioni

Stazioni seguenti

WeatherPro
AMSI
MeteoEarth